Back to catalog

STARLINK-37870

AliveCommunicationsSSO
NORAD 69432·PAYLOAD·🇺🇸 United States

Launched Jun 7, 2026 from Vandenberg Space Force Base

Loading…

Next Passes (next 24 hours)

TLE

FreshSource: CelesTrak SupGP

Epoch: Sep 14, 2026, 15:57 UTC

1 69432C 26126N   26257.66506944 -.00041143  00000+0 -12774-2 0  2577
2 69432  97.2842 119.0478 0001931  88.7161 294.8232 15.33453555    13

Track STARLINK-37870 in real time with AllMySat

Download on the App Store